sat.trackr.live / text

‹ back to catalog

HULIANWANG DIGUI-37

NORAD 64958 · 2025-159C

PAYLOAD ACTIVE UNKNOWN

§ Identity

Operator
Country
PRC
Launch date
2025-07-27
Launch site
TAISC
Launch vehicle
Mass (kg)
RCS (m²)

External: N2YO · Heavens-Above · Gunter

§ Orbital elements

Epoch: 2026-05-25T04:44:32.787744Z

Period
108.73 min
Inclination
86.4885°
Eccentricity
0.0001946
Mean motion
13.24406672 rev/d
Perigee alt
1,166.5 km
Apogee alt
1,169.4 km
Semi-major
7,546.1 km
B*
1.3053e-4
RAAN
290.0696°
Arg perigee
97.1366°
Mean anomaly
262.9990°
Rev number
4,008

§ Raw data

HULIANWANG DIGUI-371 64958U 25159C   26145.19760171  .00000071  00000+0  13053-3 0  99962 64958  86.4885 290.0696 0001946  97.1366 262.9990 13.24406672 40081

JSON: /api/v1/satellites/64958 · /tle

For live sub-satellite position, see the globe view (requires WebGL).

§ Visibility from observer

Set your observer location to see the next 7 days of passes ≥ 10°. The values pass through the URL so the page stays shareable.

No JS? Fill the form by hand. The geolocation button needs JavaScript.